GW1200 Weather Reports


time (UTC)temp
F
wind
direction
speed
knots
gust
knots
rain 1hr
in
rain 24hr
in
rain mn
in
humidity
%
barometer
mb
20260506163123 66 343 1.7 2.6 0.28 0.75 0.75 99 4248.7
20260506162122 66 35 7.0 8.7 0.12 0.70 0.70 99 4248.9
20260506161121 66 355 4.3 5.2 0.31 0.68 0.68 99 4248.6
20260506160121 67 3 10.4 11.3 0.07 0.63 0.63 99 4248.5
20260506155116 68 273 0.9 0.9 0.05 0.62 0.62 99 4248.1
20260506152924 68 262 0.9 0.9 0.00 0.61 0.61 99 4248.1
20260506151920 67 262 0.0 0.0 0.00 0.61 0.61 99 4248.1
20260506150920 67 280 0.0 0.0 0.00 0.61 0.61 99 4248.3
20260506145919 67 245 0.0 0.9 0.00 0.61 0.61 99 4248.5
20260506144918 67 243 1.7 1.7 0.00 0.61 0.61 99 4248.4
20260506143913 67 85 1.7 2.6 0.00 0.61 0.61 99 4247.9
20260506142908 67 252 0.0 0.9 0.00 0.61 0.61 99 4247.7
20260506141904 67 27 0.9 0.9 0.00 0.61 0.61 99 4247.9
20260506140859 67 314 0.9 1.7 0.00 0.61 0.61 99 4247.9
20260506135859 66 339 0.9 0.9 0.00 0.61 0.61 99 4247.7
20260506134858 66 321 2.6 4.3 0.00 0.61 0.61 99 4247.9
20260506133857 66 233 1.7 4.3 0.07 0.61 0.61 99 4247.9
20260506132856 67 219 1.7 2.6 0.00 0.60 0.60 99 4247.6
20260506131851 67 55 0.9 0.9 0.00 0.60 0.60 99 4247.4
20260506130850 67 257 0.9 1.7 0.00 0.60 0.60 99 4247.4
20260506125850 66 187 1.7 2.6 0.00 0.60 0.60 99 4247.2
20260506124846 66 248 1.7 1.7 0.12 0.60 0.60 99 4247.0
20260506123846 66 292 0.9 0.9 0.19 0.59 0.59 99 4246.6
20260506122842 66 352 0.0 0.0 0.26 0.55 0.55 99 4247.9
20260506121843 66 201 0.9 0.9 0.12 0.51 0.51 99 4248.0
20260506120842 66 309 0.0 0.9 0.52 0.49 0.49 99 4247.8
20260506115837 67 348 0.0 0.9 2.22 0.41 0.41 99 4247.8
20260506114833 71 309 9.6 11.3 0.00 0.00 0.00 95 4247.8
20260506113829 71 292 2.6 2.6 0.00 0.00 0.00 93 4245.5
20260506112828 71 325 2.6 4.3 0.00 0.00 0.00 90 4245.5
20260506111823 72 160 2.6 4.3 0.00 0.00 0.00 90 4245.3
20260506110818 72 151 4.3 6.1 0.00 0.00 0.00 90 4245.2
20260506105818 72 67 1.7 1.7 0.00 0.00 0.00 89 4244.9
20260506104818 72 4 2.6 4.3 0.00 0.00 0.00 89 4245.1
20260506103813 72 259 1.7 4.3 0.00 0.00 0.00 89 4245.0
20260506102813 72 196 1.7 2.6 0.00 0.00 0.00 89 4245.0
20260506101808 72 197 3.5 4.3 0.00 0.00 0.00 89 4245.1
20260506100807 72 342 0.9 1.7 0.00 0.00 0.00 89 4245.3
20260506095803 72 274 1.7 1.7 0.00 0.00 0.00 89 4245.1
20260506094803 71 253 2.6 4.3 0.00 0.00 0.00 89 4245.0
20260506093759 72 255 2.6 5.2 0.00 0.00 0.00 88 4245.0
20260506092754 72 251 1.7 1.7 0.00 0.00 0.00 88 4244.8
20260506091754 72 38 0.9 0.9 0.00 0.00 0.00 87 4244.7
20260506090750 72 238 1.7 1.7 0.00 0.00 0.00 87 4244.7
20260506085749 72 235 1.7 1.7 0.00 0.00 0.00 87 4244.6
20260506084748 72 33 0.9 0.9 0.00 0.00 0.00 86 4244.5
20260506083747 72 74 0.9 0.9 0.00 0.00 0.00 86 4244.8
20260506082742 72 246 0.0 1.7 0.00 0.00 0.00 85 4244.7
20260506081741 72 204 4.3 6.1 0.00 0.00 0.00 85 4244.6
20260506080736 72 48 0.9 1.7 0.00 0.00 0.00 84 4245.0
20260506072731 72 50 1.7 2.6 0.00 0.00 0.00 83 4244.5
20260506071726 72 276 4.3 6.1 0.00 0.00 0.00 83 4244.5
20260506070726 72 253 1.7 1.7 0.00 0.00 0.00 82 4244.7
20260506061714 72 227 1.7 2.6 0.00 0.00 0.00 81 4244.5
20260506060710 72 206 1.7 2.6 0.00 0.00 0.00 81 4244.7
20260506050700 73 127 1.7 1.7 0.00 0.00 0.00 78 4245.6
20260506044654 73 347 2.6 4.3 0.00 0.00 0.00 78 4245.5
20260506043654 73 329 2.6 4.3 0.00 0.00 0.00 78 4245.4
20260506042651 72 348 0.9 0.9 0.00 0.00 0.00 78 4245.8
20260506041652 72 200 2.6 4.3 0.00 0.00 0.00 78 4245.7
20260506040647 72 337 0.9 0.9 0.00 0.00 0.00 77 4246.0
20260506035641 72 303 0.9 1.7 0.00 0.00 0.00 77 4246.1
20260506034640 72 189 1.7 2.6 0.00 0.00 0.00 77 4246.2
20260506033640 72 157 1.7 1.7 0.00 0.00 0.00 77 4246.1
20260506032640 72 244 2.6 2.6 0.00 0.00 0.00 77 4246.2
20260506031639 72 240 0.9 1.7 0.00 0.00 0.00 77 4246.1
20260506030635 71 252 0.9 1.7 0.00 0.00 0.00 77 4246.2
20260506025634 71 9 0.0 0.9 0.00 0.00 0.00 78 4245.9
20260506024634 71 232 0.9 1.7 0.00 0.00 0.00 78 4246.0
20260506023632 71 40 0.0 0.0 0.00 0.00 0.00 78 4245.8
20260506022632 71 10 0.0 0.9 0.00 0.00 0.00 78 4245.7
20260506021627 71 105 0.9 0.9 0.00 0.00 0.00 78 4245.7
20260506020627 71 314 0.0 0.0 0.00 0.00 0.00 78 4245.9
20260506015622 71 257 0.0 0.9 0.00 0.00 0.00 78 4245.8
20260506014617 71 50 0.9 0.9 0.00 0.00 0.00 77 4245.3
20260506013616 71 356 0.9 0.9 0.00 0.00 0.00 77 4245.0
20260506012615 71 65 0.9 1.7 0.00 0.00 0.00 77 4245.4
20260506011615 71 300 0.0 0.9 0.00 0.00 0.00 77 4245.3
20260506010611 71 332 0.9 0.9 0.00 0.00 0.00 76 4245.0
20260506005610 71 5 0.9 0.9 0.00 0.00 0.00 76 4245.4
20260506004609 71 307 1.7 1.7 0.00 0.00 0.00 76 4245.6
20260506003608 71 180 2.6 4.3 0.00 0.00 0.00 76 4245.7
20260506002606 72 267 3.5 4.3 0.00 0.00 0.00 75 4245.7
20260506001604 72 224 1.7 4.3 0.00 0.00 0.00 74 4245.8
20260506000559 72 264 1.7 1.7 0.00 0.00 0.00 74 4245.5
20260505235554 72 41 0.9 0.9 0.00 0.00 0.00 73 4245.9
20260505234554 72 62 1.7 1.7 0.00 0.00 0.00 73 4245.7
20260505233554 73 10 0.0 0.9 0.00 0.00 0.00 72 4245.6
20260505232549 73 288 1.7 2.6 0.00 0.00 0.00 72 4245.9
20260505231548 73 282 0.9 1.7 0.00 0.00 0.00 72 4245.7
20260505230544 73 39 0.9 0.9 0.00 0.00 0.00 71 4245.8
20260505225543 73 235 2.6 2.6 0.00 0.00 0.00 71 4246.0
20260505224542 73 267 1.7 2.6 0.00 0.00 0.00 70 4246.1
20260505223542 73 251 2.6 2.6 0.00 0.00 0.00 70 4246.1
20260505222540 73 313 1.7 2.6 0.00 0.00 0.00 70 4246.2
20260505221539 74 311 2.6 2.6 0.00 0.00 0.00 68 4246.2
20260505220539 74 251 2.6 6.1 0.00 0.00 0.00 68 4246.4
20260505215535 74 327 0.9 0.9 0.00 0.00 0.00 68 4246.5
20260505214530 74 331 0.9 0.9 0.00 0.00 0.00 68 4246.5
20260505213530 73 17 0.0 0.9 0.00 0.00 0.00 69 4246.3
20260505212528 73 343 0.0 0.9 0.00 0.00 0.00 70 4246.5
20260505211528 73 349 0.9 0.9 0.00 0.00 0.00 69 4246.7
20260505210528 75 238 2.6 4.3 0.00 0.00 0.00 67 4246.7
20260505205523 75 322 0.0 0.9 0.00 0.00 0.00 68 4246.6
20260505204523 75 297 0.9 0.9 0.00 0.00 0.00 64 4246.7
20260505203523 75 301 0.9 0.9 0.00 0.00 0.00 65 4246.8
20260505202522 73 15 0.0 0.9 0.00 0.00 0.00 68 4246.9
20260505201521 72 45 0.9 0.9 0.00 0.00 0.00 67 4247.4
20260505200516 72 177 1.7 1.7 0.00 0.00 0.00 67 4247.2
20260505195515 73 251 1.7 2.6 0.00 0.00 0.00 66 4247.1
20260505194510 74 353 0.9 0.9 0.00 0.00 0.00 65 4246.9
20260505193507 75 8 1.7 2.6 0.00 0.00 0.00 62 4247.4
20260505192503 75 34 1.7 1.7 0.00 0.00 0.00 63 4247.1
20260505191458 74 243 0.9 1.7 0.00 0.00 0.00 65 4247.8
20260505190456 74 343 0.9 0.9 0.00 0.00 0.00 67 4247.8
20260505185455 74 349 0.0 0.9 0.00 0.00 0.00 71 4247.9
20260505184454 73 303 0.0 0.9 0.00 0.00 0.00 74 4248.0
20260505183454 71 282 0.0 0.9 0.00 0.00 0.00 78 4248.1
20260505182453 71 216 0.9 0.9 0.00 0.00 0.00 80 4248.0
20260505181453 70 356 0.0 0.9 0.00 0.00 0.00 81 4248.2
20260505180452 69 305 0.0 0.0 0.00 0.00 0.00 79 4248.3
20260505175450 69 250 0.0 0.9 0.00 0.00 0.00 76 4248.8
20260505174451 71 267 0.9 0.9 0.00 0.00 0.00 76 4248.8
20260505173449 71 326 0.0 0.0 0.00 0.00 0.00 71 4249.0
20260505172445 71 236 0.9 1.7 0.00 0.00 0.00 67 4249.5
20260505171441 72 144 1.7 2.6 0.00 0.00 0.00 64 4249.5
20260505170440 72 293 0.0 0.9 0.00 0.00 0.00 63 4249.8
20260505165437 73 268 2.6 2.6 0.00 0.00 0.00 60 4249.5
20260505164436 74 110 2.6 2.6 0.00 0.00 0.00 57 4249.4